Home > Weather > Sioux Falls > Past weeks

Flag for USA Weather for the Past 2 Weeks in Sioux Falls, South Dakota, USA

Now
42 °F

Clear.


Feels Like: 36 °F
Forecast: 43 / 49 °F
Wind: 10 mph from Northeast

Location: Foss Field

Current Time: Apr 30, 2016 at 2:59:02 AM

Latest Report: Apr 30, 2016 at 1:56 AM


Visibility: 10 mi

Pressure: 30.04 "Hg

Humidity: 89%

Dew Point: 39 °F

Location of Sioux FallsLocation

Historic Weather in Sioux Falls — Graph

°F

Sioux Falls Temperature Yesterday

Maximum temperature yesterday: 51 °F (at 4:56 PM)
Minimum temperature yesterday: 39 °F (at 12:56 AM)
Average temperature yesterday: 44 °F

High & Low Weather Summary for the Past Weeks

 TemperatureHumidityPressure
High74 °F (Apr 23, 3:56 PM)97% (Apr 18, 5:56 AM)30.24 "Hg (Apr 18, 5:56 AM)
Low34 °F (Apr 22, 6:56 AM)37% (Apr 15, 6:56 PM)29.44 "Hg (Apr 25, 12:56 AM)
Average53 °F76%29.94 "Hg
* Reported Apr 15 1:56 AM — Apr 30 1:56 AM, Sioux Falls, Weather by CustomWeather, © 2016

Note: Actual official high and low records may vary slightly from our data, if they occured in-between our weather recording intervals... More about our weather records

Advertising

Sioux Falls Weather History for the Previous 24 Hours

Scroll right to see more
 ConditionsComfort  
Time TempWeatherWind HumidityBarometerVisibility
1:56 AM
Sat, Apr 30
42 °FClear.10 mph89%30.04 "Hg10 mi
12:56 AM44 °FPassing clouds.6 mph82%30.09 "Hg10 mi
11:56 PM
Fri, Apr 29
45 °FOvercast.7 mph82%30.08 "Hg10 mi
10:56 PM42 °FPassing clouds.6 mph85%30.09 "Hg10 mi
9:56 PM44 °FOvercast.7 mph82%30.08 "Hg10 mi
8:56 PM46 °FMore clouds than sun.8 mph77%30.07 "Hg10 mi
7:56 PM48 °FMore clouds than sun.10 mph68%30.06 "Hg10 mi
6:56 PM50 °FMore clouds than sun.12 mph63%30.07 "Hg10 mi
5:56 PM50 °FMostly cloudy.12 mph66%30.10 "Hg10 mi
4:56 PM51 °FCloudy.7 mph66%30.10 "Hg10 mi
3:56 PM49 °FOvercast.9 mph66%30.14 "Hg10 mi
2:56 PM50 °FMore clouds than sun.14 mph66%30.15 "Hg10 mi
1:56 PM50 °FMostly cloudy.18 mph66%30.14 "Hg10 mi
12:56 PM46 °FPartly sunny.15 mph77%30.16 "Hg10 mi
11:56 AM44 °FOvercast.12 mph79%30.17 "Hg10 mi
11:03 AM42 °FLow clouds.16 mph82%30.11 "Hg10 mi
10:56 AM42 °FOvercast.14 mph79%30.14 "Hg10 mi
9:56 AM42 °FOvercast.17 mph79%30.15 "Hg10 mi
8:56 AM41 °FMore clouds than sun.13 mph82%30.17 "Hg10 mi
7:56 AM40 °FLow clouds.8 mph86%30.19 "Hg10 mi
6:56 AM39 °FLow clouds.7 mph93%30.18 "Hg7 mi
5:56 AM40 °FOvercast.3 mph89%30.17 "Hg10 mi
4:56 AM40 °FOvercast.5 mph89%30.16 "Hg10 mi
3:56 AM40 °FLow clouds.3 mph89%30.16 "Hg9 mi
3:03 AM39 °FFog.No wind93%30.13 "Hg2 mi
Weather by CustomWeather, © 2016

See weather overviewHow to use our weather pages